Pagina principale
METAR-TAF:

METAR-TAF

Aeroporti :

Lawrence Municipal Airport

Lawrence, Massachusetts, Stati Uniti

latitudine: 42-42-47N, longitudine: 071-07-33W, altezza: 45 m

Osservazione

Il bollettino è stato emesso 14 minuti fa, alle 17:54 UTC
Vento 11 kt da nord-ovest
Temperature 8°C
Umidità 31%
Pressione 1023 hPa
Visibilità: 16.1 km
Poco nuvoloso ad un'altezza di 7000 ft

METAR: KLWM 181754Z 32011KT 10SM FEW070 08/M08 A3021 RMK AO2 SLP229 T00831083 10083 20033 58001

Ora: 14:08 (18:08 UTC)


TAF: mancante

Osservazioni e previsioni meteorologiche di più di 4000 aeroporti (messaggi METAR e TAF).

Le stazioni disponibili sono rappresentate dai dischi gialli e rossi sulla carta.

Puntare il mouse per vedere il nome della stazione.

Clicca sopra per visualizzare le osservazioni e previsioni meteorologiche.

Per cambiare la mappa : fare clic sui pulsanti verdi con una croce nera per ingrandire, il pulsante verde con un trattino per diminuire, o sulla freccia verde per le mappe adiacenti.


METAR-TAF: